Twentynine Palms, CA

8:06 PM PDT on April 27, 2017 (GMT -0700)
Twentynine Palms Expeditionary Air Field

Weather History for KNXP - February, 2014

Change the Weather History Date:

Monday, February 10, 2014

  Actual Average Record
Temperature  
Mean Temperature 65 °F -  
Max Temperature 73 °F 60 °F 79 °F (2017)
Min Temperature 57 °F 38 °F 30 °F (2002)
Growing Degree Days 15 (Base 50)    
Moisture  
Dew Point 37 °F    
Average Humidity 38    
Maximum Humidity 53    
Minimum Humidity 22    
Precipitation  
Precipitation 0.00 in - - ()
Sea Level Pressure  
Sea Level Pressure 29.97 in    
Wind  
Wind Speed 21 mph (NW)    
Max Wind Speed 41 mph    
Max Gust Speed 54 mph    
Visibility 7 miles    
Events Rain    
Averages and records for this station are not official NWS values.
T = Trace of Precipitation, MM = Missing Value Source: NWS Daily Summary

Daily Weather History Graph

Daily Weather History Graph

Search for Another Location

Airport or City:

Trip Planner

Search our weather history database for the weather conditions in past years. The results will help you decide how hot, cold, wet, or windy it might be!

Date:

Astronomy

Feb. 10, 2014 Rise Set
Actual Time 6:34 AM PST 5:23 PM PST
Civil Twilight 6:08 AM PST 5:49 PM PST
Nautical Twilight 5:39 AM PST 6:19 PM PST
Astronomical Twilight 5:09 AM PST 6:48 PM PST
Moon 2:00 PM PST (2/10) 3:26 AM PST (2/10)
Length of Visible Light 11h 40m
Length of Day
10h 49m
Waxing Gibbous, 85% of the Moon is Illuminated
Feb 10
Waxing Gibbous
Feb 14
Full
Feb 22
Last Quarter
Mar 1
New
Mar 8
First Quarter

Hourly Weather History & Observations

Time (PST) Temp. Dew Point Humidity Pressure Visibility Wind Dir Wind Speed Gust Speed Precip Events Conditions
12:56 AM 60.1 °F 35.1 °F 39% 30.01 in 10.0 mi SSW 4.6 mph - N/A   Clear
1:56 AM 64.9 °F 36.0 °F 34% 29.97 in 5.0 mi West 31.1 mph 43.7 mph N/A   Haze
2:56 AM 63.0 °F 35.1 °F 35% 29.97 in 10.0 mi NW 5.8 mph - N/A   Clear
3:56 AM 63.0 °F 36.0 °F 37% 29.95 in 10.0 mi North 5.8 mph 17.3 mph N/A   Clear
4:39 AM 64.0 °F 39.9 °F 41% 30.02 in 2.5 mi WNW 33.4 mph 46.0 mph N/A   Haze
4:41 AM 64.0 °F 39.9 °F 41% 30.02 in 1.0 mi WNW 34.5 mph 48.3 mph N/A   Haze
4:48 AM 64.0 °F 41.0 °F 43% 30.02 in 0.5 mi WNW 32.2 mph 48.3 mph 0.00 in Rain Light Rain
4:53 AM 64.4 °F 41.0 °F 42% 30.03 in 1.5 mi WNW 33.4 mph 44.9 mph 0.00 in Rain Light Rain
4:56 AM 64.0 °F 41.0 °F 43% 29.94 in 3.0 mi WNW 32.2 mph 43.7 mph 0.00 in   Haze
5:14 AM 63.0 °F 42.1 °F 46% 30.03 in 1.8 mi WNW 38.0 mph 46.0 mph N/A   Haze
5:20 AM 63.0 °F 43.0 °F 48% 30.04 in 0.8 mi West 41.4 mph 54.1 mph N/A   Haze
5:34 AM 62.1 °F 43.0 °F 50% 30.04 in 1.2 mi West 35.7 mph 50.6 mph 0.00 in Rain Light Rain
5:37 AM 62.1 °F 43.0 °F 50% 30.04 in 4.0 mi West 34.5 mph 47.2 mph 0.00 in   Haze
5:56 AM 62.1 °F 42.1 °F 48% 29.97 in 6.0 mi WNW 34.5 mph 42.6 mph 0.00 in   Haze
6:56 AM 60.1 °F 43.0 °F 53% 30.02 in 10.0 mi NW 17.3 mph 24.2 mph N/A   Scattered Clouds
7:56 AM 62.1 °F 43.0 °F 50% 30.05 in 10.0 mi NNW 17.3 mph 26.5 mph N/A   Scattered Clouds
8:56 AM 64.0 °F 43.0 °F 46% 30.05 in 7.0 mi WNW 32.2 mph 44.9 mph N/A   Partly Cloudy
9:56 AM 66.9 °F 39.9 °F 37% 30.05 in 10.0 mi NW 20.7 mph 36.8 mph 0.00 in   Scattered Clouds
10:56 AM 69.1 °F 36.0 °F 30% 30.05 in 10.0 mi WNW 27.6 mph 32.2 mph N/A   Scattered Clouds
11:56 AM 71.1 °F 37.9 °F 30% 30.03 in 10.0 mi WNW 21.9 mph 31.1 mph N/A   Scattered Clouds
12:56 PM 73.0 °F 33.1 °F 23% 29.99 in 10.0 mi NW 24.2 mph 31.1 mph N/A   Scattered Clouds
1:56 PM 73.0 °F 32.0 °F 22% 29.98 in 10.0 mi NNW 19.6 mph - N/A   Partly Cloudy
2:56 PM 72.0 °F 33.1 °F 24% 29.97 in 10.0 mi NNW 19.6 mph 26.5 mph N/A   Scattered Clouds
3:56 PM 72.0 °F 30.9 °F 22% 29.97 in 10.0 mi NNW 17.3 mph - N/A   Partly Cloudy
4:56 PM 70.0 °F 30.9 °F 24% 29.98 in 10.0 mi NNW 15.0 mph - N/A   Partly Cloudy
5:56 PM 66.0 °F 32.0 °F 28% 30.01 in 10.0 mi North 10.4 mph - N/A   Partly Cloudy
6:56 PM 64.9 °F 30.0 °F 27% 30.02 in 10.0 mi NNW 10.4 mph - N/A   Clear
7:56 PM 61.0 °F 34.0 °F 36% 29.37 in 10.0 mi WNW 17.3 mph - N/A   Clear
8:56 PM 60.1 °F 35.1 °F 39% 29.39 in 10.0 mi WNW 19.6 mph - N/A   Clear
9:56 PM 57.9 °F 35.1 °F 42% 30.06 in 10.0 mi NNE 9.2 mph - N/A   Clear
10:56 PM 57.9 °F 36.0 °F 44% 30.07 in 10.0 mi WNW 15.0 mph - N/A   Clear
11:56 PM 57.0 °F 36.0 °F 45% 30.09 in 10.0 mi NW 15.0 mph - N/A   Clear